SCP
5 4 4 3 3 3 2 2 2 2 2 2 2 2 3 3 3 3 2 2 2 1 1 1 1 1 1 1 1 1 1 1 1 1 1 1 1 2 2 2 2 1 2
5 5 4 4 3 3 2 2 2 2 2 1 1 2 2 3 3 3 2 2 2 1 1 1 1 1 1 1 1 1 1 1 1 1 1 1 1 1 2 2 2 1 1
5 5 4 4 4 3 2 2 2 1 1 1 1 1 2 2 2 2 2 2 2 2 1 1 1 1 1 1 1 1 1 1 1 1 1 1 1 1 2 2 2 1 1
5 4 4 4 4 3 2 2 1 1 1 1 1 1 1 1 2 2 2 2 2 2 1 1 1 1 1 1 1 1 1 1 1 1 1 1 1 1 2 2 1 1 1
5 5 5 4 4 3 2 2 1 1 1 1 1 1 1 1 1 1 2 2 2 2 1 1 1 1 1 1 1 1 1 1 1 1 1 1 1 1 1 2 1 1 1
6 5 4 4 4 3 2 1 1 1 1 1 1 1 1 1 1 1 1 2 2 2 1 1 1 1 1 1 1 1 1 1 1 1 1 1 1 1 1 1 1 1 1
4 4 3 3 3 3 2 2 1 1 1 1 1 1 1 1 1 1 1 1 2 1 1 1 1 2 2 2 2 2 1 1 0 1 1 1 1 1 2 1 1 1 1
4 4 3 3 3 2 2 2 2 1 2 1 1 1 1 1 1 1 1 1 1 1 1 1 2 2 3 2 2 2 2 1 1 1 1 1 2 2 2 2 1 1 1
6 4 3 3 3 3 2 2 2 2 2 2 2 1 1 1 1 1 1 1 1 1 1 1 2 2 2 3 3 2 2 1 1 1 1 2 2 2 2 2 1 1 1
7 5 4 4 4 3 2 2 2 2 2 2 2 1 1 1 1 1 1 1 1 1 1 1 2 2 2 3 3 2 2 1 1 1 1 2 2 2 2 2 2 1 1
7 5 4 4 4 2 2 2 2 2 2 2 2 1 1 1 1 1 1 1 1 1 1 1 2 2 2 3 3 2 2 1 1 1 1 2 2 2 2 2 2 1 1
7 6 5 4 3 2 2 2 2 2 2 2 2 1 1 1 1 1 1 1 2 2 2 2 2 2 2 2 2 2 1 1 1 1 1 2 2 2 2 2 2 2 2
6 6 5 4 4 4 3 3 3 2 2 2 2 2 2 2 1 2 2 2 2 2 2 2 2 2 2 2 2 2 1 1 1 1 1 2 2 2 2 2 2 2 1
6 5 4 4 5 5 5 4 4 3 2 2 2 2 2 2 2 2 2 2 2 2 2 2 3 3 3 2 2 1 1 1 2 2 2 2 2 2 2 2 2 2 1
5 5 5 5 5 6 6 5 5 4 4 3 3 3 3 3 3 3 3 3 3 3 2 2 3 3 3 3 2 2 2 2 2 2 2 2 2 2 2 2 2 2 2
5 5 5 5 5 6 6 6 6 6 6 5 4 4 4 3 3 4 4 3 3 3 3 3 2 3 3 3 2 2 2 2 2 2 2 2 2 2 2 2 2 2 2
4 4 4 4 4 5 6 7 8 8 7 6 5 4 4 3 3 3 3 3 3 3 3 3 2 3 3 3 3 3 3 3 2 2 2 2 2 2 2 2 2 2 2
5 5 4 4 4 4 5 6 7 7 7 6 5 4 4 3 3 3 3 2 3 3 4 3 3 3 3 3 4 4 4 3 3 2 2 2 2 2 2 2 2 2 2
7 6 5 4 4 3 3 4 4 5 4 4 4 3 3 3 3 3 3 3 3 3 4 4 3 3 4 4 4 4 4 3 3 2 2 2 2 2 2 2 2 2 2
7 6 5 5 5 4 4 4 3 3 3 3 3 3 3 3 3 3 3 3 3 3 4 4 4 4 4 4 3 3 4 3 3 3 3 3 3 2 2 2 2 2 1
7 7 6 6 6 5 5 4 4 3 3 3 3 3 3 3 3 3 3 3 3 3 4 4 5 5 4 4 3 3 3 3 3 3 4 4 3 3 2 2 2 2 2
8 8 7 7 6 6 6 5 5 4 3 3 3 3 3 3 3 3 3 3 3 3 4 4 5 5 5 5 5 4 4 3 3 3 4 4 3 3 2 3 3 2 2
8 7 6 6 6 6 6 6 6 5 4 3 3 3 4 4 4 3 3 3 3 3 3 4 4 5 5 6 6 6 5 4 3 3 4 4 3 3 2 2 2 2 2
8 7 6 6 7 7 7 7 7 6 5 4 3 3 4 4 5 4 4 4 4 4 4 3 3 4 5 6 7 7 6 5 4 4 4 4 4 3 2 2 2 3 3
7 6 6 6 7 7 8 8 7 6 5 4 4 4 4 5 5 5 5 5 5 4 4 3 3 4 4 5 6 6 5 5 4 4 4 4 4 4 3 3 3 3 4
7 6 6 6 7 7 7 8 8 7 6 5 4 4 4 5 5 5 6 7 6 4 4 3 3 3 4 4 4 4 4 4 4 4 4 4 5 5 5 4 3 4 4
Wind_Speed
14 14 14 13 11 10 10 10 9 9 9 8 9 9 9 10 10 10 9 9 9 9 10 10 10 10 9 10 10 10 10 10 11 11 12 12 13 12 12 12 11 10 14
17 15 14 12 11 11 10 10 9 9 9 8 8 8 9 9 9 9 9 8 8 9 9 9 9 9 9 9 9 9 9 9 9 10 11 11 12 12 12 11 11 10 14
17 15 14 12 12 11 10 9 9 9 9 8 8 8 8 8 8 8 8 7 7 8 8 9 9 8 8 9 8 8 8 8 8 8 8 6 9 12 12 13 13 14 14
16 14 13 12 12 11 10 10 9 9 9 8 7 8 7 7 7 7 7 7 7 7 8 8 7 8 8 8 7 7 6 6 6 5 3 5 7 12 13 13 13 13 13
15 14 14 13 12 11 10 10 9 8 8 8 7 7 7 7 7 7 7 7 7 7 7 7 6 7 7 7 6 6 4 3 3 3 3 5 6 11 12 12 12 12 12
15 14 13 12 12 11 10 10 9 8 8 7 7 7 6 6 6 6 6 6 6 7 6 6 6 7 7 6 5 5 3 2 1 2 4 6 7 10 11 11 11 11 11
14 14 14 12 12 11 10 10 9 8 8 7 7 6 6 5 5 5 5 5 5 6 6 6 6 6 6 5 4 3 2 1 2 1 4 6 8 11 11 10 10 11 10
13 14 13 13 12 11 10 9 8 8 8 7 6 5 5 5 5 5 5 5 5 5 5 5 5 5 4 4 3 2 2 3 3 2 3 6 10 12 11 10 9 10 10
13 12 11 11 11 11 10 9 8 8 7 7 6 5 4 5 5 5 5 5 5 5 5 5 5 4 4 3 3 2 3 4 2 2 4 5 9 11 11 10 10 10 9
11 11 10 10 10 9 9 10 9 8 7 7 6 5 5 5 6 6 6 5 5 5 4 4 5 5 5 4 4 3 3 4 3 1 3 6 10 11 10 10 10 9 9
9 8 8 9 8 7 8 9 9 9 7 7 6 6 6 4 4 5 5 7 6 6 5 5 5 5 5 6 6 5 4 3 3 1 3 8 9 10 10 9 9 8 8
9 8 7 7 7 6 5 7 5 5 6 5 4 4 3 2 2 4 7 7 7 6 6 6 6 5 5 4 5 6 3 4 3 2 5 10 9 9 10 9 8 8 8
8 7 7 7 6 5 4 4 3 3 4 3 3 3 2 1 2 3 3 5 5 6 4 5 5 4 4 2 3 4 4 2 2 2 6 11 9 9 10 9 8 8 7
7 7 6 6 5 4 3 2 3 2 3 2 3 2 1 1 1 1 1 2 3 2 2 2 2 2 2 2 3 3 4 2 2 3 5 11 11 10 10 9 9 8 8
7 6 5 5 5 3 3 1 2 3 3 3 3 2 1 1 1 1 1 1 1 2 2 1 2 2 2 2 3 2 1 2 3 4 4 10 11 10 10 9 9 8 8
7 6 5 5 5 4 3 1 1 2 3 2 3 2 1 1 1 1 1 1 0 1 1 1 1 1 1 1 1 1 1 1 2 4 4 6 9 10 10 9 9 9 8
7 6 5 5 6 4 3 1 2 2 2 2 3 3 2 1 1 1 1 1 1 1 1 1 1 1 2 1 1 1 0 1 1 2 3 4 5 9 10 10 9 9 9
7 7 4 4 6 5 3 1 1 1 2 2 2 2 2 1 1 1 1 1 1 1 1 1 1 1 0 0 1 1 1 1 2 2 3 3 3 4 7 10 10 9 9
7 6 5 4 5 4 3 2 2 2 2 2 2 2 1 1 1 1 0 0 1 1 0 1 1 0 1 1 1 1 1 2 2 3 3 3 3 4 4 7 9 10 10
7 7 5 4 5 4 3 2 2 2 2 2 2 2 2 1 1 1 1 1 1 0 0 0 0 1 1 1 2 1 2 2 2 2 3 3 3 4 4 5 5 7 10
8 7 5 5 4 3 2 2 2 2 2 2 3 2 2 1 1 1 0 1 1 1 1 1 1 1 1 1 1 1 2 2 2 2 2 2 3 3 3 4 4 3 4
8 7 6 5 5 4 2 1 2 2 2 2 2 3 3 2 2 2 1 1 1 1 1 1 1 1 1 1 1 1 1 1 2 3 3 3 3 2 3 4 4 4 3
8 7 6 5 5 4 3 2 2 2 1 2 2 2 3 3 2 1 2 1 1 1 1 2 2 2 2 1 1 1 1 1 1 2 3 2 2 2 2 2 3 3 4
8 8 7 6 5 3 3 2 3 3 2 2 1 2 2 2 2 2 2 1 1 1 1 2 1 2 2 2 2 2 1 0 1 1 1 1 2 2 1 2 2 3 3
8 7 7 6 5 4 3 2 2 2 1 1 1 2 2 1 2 2 2 1 1 1 1 1 1 2 2 2 2 1 1 2 2 1 1 1 1 1 2 1 1 2 3
8 7 6 6 5 4 3 2 1 2 2 2 1 2 1 1 1 1 2 1 1 1 1 1 1 1 1 1 1 1 1 1 1 1 1 2 2 1 2 1 2 2 2
Wind_Direction
111 115 117 112 111 109 108 106 102 97 91 87 85 79 76 75 78 85 87 90 93 97 101 101 99 96 96 96 97 96 96 103 108 107 108 108 112 112 111 114 116 112 116
115 117 117 113 112 110 110 108 104 100 95 90 88 84 81 79 77 84 89 92 96 99 101 102 101 101 102 103 102 100 102 110 115 114 114 115 117 118 115 111 107 115 122
114 119 119 115 113 111 110 110 106 103 100 96 94 91 86 83 80 82 88 93 97 102 105 105 106 107 107 107 106 104 104 109 114 119 123 126 122 120 118 116 115 121 124
115 121 118 119 116 114 112 112 110 107 106 104 103 100 93 89 85 85 88 90 98 105 106 108 108 114 114 114 113 111 110 110 116 116 125 119 120 118 118 120 121 124 127
112 113 118 122 119 117 116 115 114 112 111 110 109 106 100 96 93 91 91 92 96 102 104 108 111 117 119 121 119 118 120 119 130 155 141 114 108 120 122 126 129 131 133
119 118 122 125 124 124 121 119 117 116 113 112 109 107 104 103 103 100 98 98 98 100 105 109 108 116 121 123 125 129 135 146 197 165 119 111 113 126 129 133 139 139 138
120 123 128 129 130 131 129 125 124 123 119 116 113 111 111 112 114 109 108 107 109 109 111 116 119 119 124 131 134 141 159 228 225 141 114 119 128 137 137 139 142 144 145
122 125 131 134 137 139 136 133 132 129 127 125 124 125 124 127 128 122 119 116 117 121 122 123 128 134 139 144 148 168 217 258 198 153 136 126 138 142 143 144 146 150 152
123 126 137 142 143 144 140 139 140 139 138 137 137 139 143 146 145 143 137 132 129 129 131 132 138 146 156 168 183 206 240 254 264 182 154 130 144 148 150 152 155 157 157
128 135 142 146 148 151 150 152 153 153 153 152 157 163 166 164 165 164 157 153 148 146 149 150 156 168 178 191 204 217 238 247 234 205 125 139 148 151 152 155 157 158 160
129 135 143 146 147 152 155 152 159 165 168 166 172 179 185 189 172 170 155 152 158 159 163 171 178 187 194 204 211 215 229 224 213 160 125 141 150 154 153 153 158 158 162
141 141 141 135 140 153 151 145 163 166 161 182 163 173 191 186 158 149 146 158 167 172 180 193 200 203 208 210 203 207 223 210 195 150 131 145 153 158 155 154 155 157 162
139 140 134 135 142 147 136 152 155 159 155 180 149 164 181 167 143 140 150 162 177 182 195 188 203 214 201 198 195 197 212 206 172 132 138 150 156 163 159 159 163 165 168
141 139 141 131 129 128 129 147 149 138 145 148 138 159 143 134 126 118 145 166 175 174 191 185 204 207 216 204 212 203 201 184 141 125 146 155 161 169 167 165 167 172 178
139 135 133 127 124 115 108 144 134 133 139 135 131 134 146 138 119 120 130 139 184 160 170 201 209 203 229 216 228 218 204 175 149 140 146 165 168 171 171 172 172 176 180
139 136 132 129 118 115 117 179 125 128 135 131 125 126 126 101 113 131 145 185 184 128 160 217 222 205 212 235 264 247 212 237 130 137 148 167 176 174 178 179 178 180 183
134 127 128 145 131 130 133 180 152 137 131 126 122 129 121 110 135 181 179 184 174 163 169 202 255 246 209 203 235 281 244 196 126 132 153 165 173 179 181 183 183 183 185
136 131 139 144 131 128 127 165 145 131 130 124 121 125 126 137 162 212 194 168 190 174 173 188 204 235 291 243 227 247 213 192 174 182 174 170 170 175 182 186 189 190 190
128 132 135 127 131 128 136 161 149 130 123 122 120 113 131 144 160 172 163 147 205 189 174 233 140 209 259 250 239 232 225 217 177 205 185 189 182 173 173 184 188 197 197
130 131 133 124 122 134 146 167 152 134 144 138 131 130 147 170 166 164 180 165 196 174 187 231 103 253 253 250 265 260 237 226 198 193 196 200 182 184 179 174 181 201 204
135 136 138 134 128 134 137 160 153 159 161 149 142 147 157 166 162 187 170 165 181 180 188 200 182 232 252 253 275 290 275 234 215 190 192 201 191 182 177 172 180 188 197
143 145 147 143 139 140 138 156 168 165 167 153 149 157 169 173 177 189 189 231 186 183 197 195 198 219 254 243 238 231 249 223 244 219 193 199 196 181 183 189 183 184 196
146 151 150 146 145 150 152 166 164 150 168 160 158 164 179 178 189 196 183 221 233 219 189 210 205 214 236 246 244 213 225 226 234 230 217 194 182 188 185 173 187 179 194
153 150 144 147 144 153 157 170 175 167 174 168 159 153 162 168 177 184 191 213 223 227 217 231 205 229 230 235 240 234 236 292 227 253 243 200 192 194 203 216 193 173 171
149 147 145 147 148 151 160 159 162 151 151 133 124 132 154 176 178 182 180 198 205 216 211 235 233 244 236 244 249 241 250 255 248 227 244 232 225 203 195 215 220 181 172
146 143 140 141 144 151 154 146 147 137 139 134 150 159 177 170 181 175 171 175 198 204 196 223 251 255 271 276 273 258 239 237 234 234 240 229 216 226 204 196 212 194 175